Location: Theodore Roosevelt National Park
(46.9990°N, 103.4631°W)
Time: 10:52:33
(UTC-06:00)

Iridium 37 - Visible Passes

Search period start: 30 September 2016 00:00
Search period end: 10 October 2016 00:00
Orbit: 776 x 779 km, 86.4° (Epoch: 29 September)

Date Brightness Start Highest point End Pass type
(mag) Time Alt. Az. Time Alt. Az. Time Alt. Az.
30 Sep 6.2 04:29:16 10° SSE 04:34:19 54° E 04:39:25 10° NNE visible
30 Sep 6.7 06:11:26 10° WSW 06:15:24 22° WNW 06:19:24 10° NNW visible
01 Oct 7.2 03:56:27 10° SE 04:00:58 31° E 04:05:31 10° NNE visible
01 Oct 6.1 05:36:49 10° SW 05:41:36 36° WNW 05:46:25 10° NNW visible
02 Oct 8.0 03:24:16 10° ESE 03:27:45 18° ENE 03:31:14 10° NE visible
02 Oct 5.5 05:04:05 18° SSW 05:07:55 63° W 05:13:08 10° N visible
03 Oct 8.5 02:53:58 10° E 02:54:39 10° ENE 02:55:20 10° ENE visible
03 Oct 5.6 04:31:40 29° S 04:34:23 76° E 04:39:37 10° N visible
03 Oct 7.1 06:12:39 10° WSW 06:15:45 16° WNW 06:18:53 10° NNW visible
04 Oct 6.6 03:59:07 31° SE 04:00:58 43° E 04:05:53 10° NNE visible
04 Oct 6.5 05:39:39 20° WSW 05:41:52 26° WNW 05:46:15 10° NNW visible
05 Oct 7.4 03:26:29 23° ESE 03:27:40 25° E 03:31:52 10° NNE visible
05 Oct 5.8 05:07:00 39° WSW 05:08:07 45° W 05:13:08 10° N visible
06 Oct 8.1 02:53:45 14° E 02:54:29 15° ENE 02:57:18 10° NE visible
06 Oct 5.3 04:34:16 76° WSW 04:34:30 78° W 04:39:45 10° N visible
06 Oct 7.3 06:14:47 10° W 06:16:09 11° WNW 06:17:44 10° NW visible
07 Oct 6.0 04:01:27 58° ENE 04:01:27 58° ENE 04:06:10 10° N visible
07 Oct 6.8 05:41:58 19° WNW 05:42:11 19° WNW 05:45:55 10° NNW visible
08 Oct 7.1 03:28:35 32° ENE 03:28:35 32° ENE 03:32:20 10° NNE visible
08 Oct 6.4 05:09:06 31° WNW 05:09:06 31° WNW 05:13:03 10° NNW visible
09 Oct 7.9 02:55:41 19° ENE 02:55:41 19° ENE 02:58:09 10° NNE visible
09 Oct 6.2 04:36:11 41° NNW 04:36:11 41° NNW 04:39:49 10° N visible
